TimePST,TemperatureF,Dew PointF,Humidity,Sea Level PressureIn,VisibilityMPH,Wind Direction,Wind SpeedMPH,Gust SpeedMPH,PrecipitationIn,Events,Conditions,WindDirDegrees,DateUTC
12:53 AM,39.9,28.9,65,29.92,10.0,Calm,Calm,-,N/A,,Clear,0,2014-02-22 08:53:00
1:53 AM,37.9,28.0,68,29.91,10.0,Calm,Calm,-,N/A,,Clear,0,2014-02-22 09:53:00
2:53 AM,37.9,28.0,68,29.89,10.0,Calm,Calm,-,N/A,,Clear,0,2014-02-22 10:53:00
3:53 AM,39.0,28.0,65,29.90,10.0,Calm,Calm,-,N/A,,Clear,0,2014-02-22 11:53:00
4:53 AM,37.0,27.0,67,29.90,10.0,Calm,Calm,-,N/A,,Clear,0,2014-02-22 12:53:00
5:53 AM,37.9,28.0,68,29.91,10.0,East,3.5,-,N/A,,Clear,80,2014-02-22 13:53:00
6:53 AM,37.0,27.0,67,29.93,10.0,Calm,Calm,-,N/A,,Clear,0,2014-02-22 14:53:00
7:53 AM,52.0,28.0,40,29.93,10.0,ESE,4.6,-,N/A,,Clear,110,2014-02-22 15:53:00
8:53 AM,63.0,24.1,23,29.93,10.0,Calm,Calm,-,N/A,,Clear,0,2014-02-22 16:53:00
9:53 AM,70.0,21.0,16,29.93,10.0,SE,3.5,-,N/A,,Clear,130,2014-02-22 17:53:00
10:53 AM,70.0,21.9,16,29.92,10.0,Calm,Calm,-,N/A,,Clear,0,2014-02-22 18:53:00
11:53 AM,73.0,23.0,15,29.91,10.0,NW,6.9,-,N/A,,Clear,310,2014-02-22 19:53:00
12:53 PM,73.0,25.0,17,29.88,10.0,WNW,8.1,-,N/A,,Clear,290,2014-02-22 20:53:00
1:53 PM,72.0,28.9,20,29.87,10.0,WNW,6.9,-,N/A,,Clear,300,2014-02-22 21:53:00
2:53 PM,73.9,30.9,21,29.86,10.0,WNW,8.1,-,N/A,,Clear,290,2014-02-22 22:53:00
3:53 PM,71.1,34.0,26,29.85,10.0,WSW,10.4,-,N/A,,Clear,250,2014-02-22 23:53:00
4:53 PM,66.0,35.1,32,29.87,10.0,West,8.1,-,N/A,,Clear,270,2014-02-23 00:53:00
5:53 PM,57.9,34.0,41,29.89,10.0,West,4.6,-,N/A,,Clear,280,2014-02-23 01:53:00
6:53 PM,53.1,30.0,41,29.91,10.0,Calm,Calm,-,N/A,,Clear,0,2014-02-23 02:53:00
7:53 PM,52.0,30.9,45,29.91,10.0,Calm,Calm,-,N/A,,Clear,0,2014-02-23 03:53:00
8:53 PM,46.0,28.0,50,29.92,10.0,Calm,Calm,-,N/A,,Clear,0,2014-02-23 04:53:00
9:53 PM,45.0,30.9,58,29.92,10.0,Calm,Calm,-,N/A,,Clear,0,2014-02-23 05:53:00
10:53 PM,44.1,30.0,58,29.93,10.0,ENE,3.5,-,N/A,,Clear,60,2014-02-23 06:53:00
11:53 PM,43.0,32.0,65,29.93,10.0,Calm,Calm,-,N/A,,Clear,0,2014-02-23 07:53:00